CZ-2C R/B, 63127

Orbit data source: Space-Track

CZ-2C R/B, 63127 is space debris in SSO originally from a launch on Thu, 27 Feb 2025 UTC launched from the Jiuquan Satellite Launch Center, China (JSC). Debris objects in space refer to the collection of defunct objects orbiting the Earth. Examples of debris include non-operational satellites, rocket bodies, and fragments generated from explosions, collisions, or faulty payload assembly.

Loading next visibility...
Identifier
63127, 2025-040C
Orbit
SSO
Country
Flag of CNCN / PRC
Related business
Manufacturer
CALT
Mission
Spacecraft
Bus & Motor
CZ-2 STAGE 2, Unknown motor
Mass
~3,800 kg wet, ~3,800 kg dry
Launch date (UTC)
2025-02-27 (1 year ago)
Launch vehicle
Unknown
Launch site
Jiuquan Satellite Launch Center, China (JSC)
Object type
Payload
Rocket body
Debris
Shape & HBR
Cyl, 3.6 m
Radar Cross Section
23.715 m², Large (>1 m²)

Expand to show TLE details & history
Last TLE update: 11 hours ago

TLE from 11 hours ago
0 CZ-2C R/B
1 63127U 25040C   26119.20555259  .00011262  00000-0  31021-3 0  9994
2 63127  97.1690 230.6419 0012182 235.1544 124.8556 15.37227515 65141
Epoch: 2026-04-29T04:55Z
TLE epoch observation values (Epoch: 2026-04-29T04:55:59.743Z)
Latitude
-0.00005°
Longitude
-60.52687°
Altitude
462.197 km
Speed
7.633 km/s
True Right ascension
15h 22m 34s
True Declination
0° 00' 00"
Sunlit
Object was in full shadow at epoch
Visualization orbit readout
Latitude
Unknown
Longitude
Unknown
Altitude
Unknown
Speed
Unknown
Apparent Right ascension
Unknown
Apparent Declination
Unknown
Sunlit
N/A
Visualization observer readout
Local Sidereal Time
23:40:27
Azimuth
Unknown
Elevation
Unknown
Doppler factor
Unknown
Orbital elements
Apogee altitude
459.565 km
Perigee altitude
442.925 km
Semi-major axis
6,829.382 km
Eccentricity
0.00122
Inclination
97.169°
RAAN
230.6419°
Arg. of periapsis
235.1544°
True anomaly
124.97005°
Mean anomaly
124.8556°
Eccentric anomaly
124.91284°
Mean motion
3.84566 °/min
Orbital period
93.61 mins
BSTAR
0.00031021
Loading maneuver chart data...
Computing Atmospheric mass density...
Loading historical data...
Loading historical data...
Loading historical data...
Loading historical data...
Loading historical data...
Loading historical data...
Loading historical data...
Other satellites on launch #40 in the year 2025 (2025-02-27 UTC)

Documentation

Showing up to 5 results
|